Back to catalog

NAHID 2

AliveCommunicationsSSO
NORAD 64889·PAYLOAD·🇮🇷 Iran
This satellite name has not been confirmed by official sources yet.

Launched Jul 25, 2025 from Vostochny Cosmodrome

Loading…

Next Passes (next 24 hours)

TLE

FreshSource: Space-Track

Epoch: Sep 14, 2026, 14:14 UTC

1 64889U 25155P   26257.59344810  .00004085  00000-0  15582-3 0  9990
2 64889  97.4706 225.4269 0006029 208.7652 151.3255 15.27237689 94350

Track NAHID 2 in real time with AllMySat

Download on the App Store